Alyeska Resort
Hourly Weather - Mid Mountian Site
ALY_MID_HR 2/11/2016
CLICK TO VIEW GRAPH!!

        DATE  TIME   Air   H2o   H2o   New  Snow  BATT   Rel
                    Temp  Inch Since  Snow Depth  Volt  Hum%
                      F   1HR  0600   1HR         AVG   AVG

   2/11/2016 18:00    32  0.08  0.85   1.2 87.00 13.44    98
   2/11/2016 17:00    33  0.06  0.77   0.9178.70 13.43    96
   2/11/2016 16:00    33  0.08  0.71   0.8 87.70 13.43    95
   2/11/2016 15:00    33  0.12  0.63   0.5 88.10 13.43    96
   2/11/2016 14:00    34  0.13  0.51   0.3 88.30 13.42    95
   2/11/2016 13:00    34  0.09  0.38   0.3163.80 13.42    94
   2/11/2016 12:00    34  0.04  0.29   0.3164.40 13.42    95
   2/11/2016 11:00    34  0.07  0.25   0.4 89.00 13.42    95
   2/11/2016 10:00    34  0.04  0.18   0.3 89.10 13.42    95
   2/11/2016 09:00    34  0.02  0.14   0.5 89.20 13.42    95
   2/11/2016 08:00    34  0.07  0.12   0.5 89.30 13.42    96
   2/11/2016 07:00    34  0.05  0.05   0.4 89.50 13.42    96
   2/11/2016 06:00    34  0.06  0.51   0.4 89.90 13.42    97
   2/11/2016 05:00    34  0.09  0.45   0.3 90.10 13.42    98
   2/11/2016 04:00    34  0.12  0.36   0.3 90.20 13.42    98
   2/11/2016 03:00    33  0.12  0.24   0.2 90.20 13.42    98
   2/11/2016 02:00    33  0.06  0.12   0.2 90.30 13.42    99
   2/11/2016 01:00    33  0.01  0.06   0.2 90.40 13.42    99
   2/10/2016 24:00    34  0.00  0.05   0.2 90.50 13.42    98
   2/10/2016 23:00    33  0.00  0.05   0.2 90.70 13.43    98
   2/10/2016 22:00    33  0.00  0.05   0.2 90.90 13.43    98
   2/10/2016 21:00    33  0.00  0.05   0.3 90.90 13.43    98
   2/10/2016 20:00    33  0.01  0.05   0.3 90.90 13.43    97
   2/10/2016 19:00    33  0.01  0.04   0.2 91.10 13.43    97


CLICK TO VIEW GRAPH!!